Date,TemperatureHighF,TemperatureAvgF,TemperatureLowF,DewpointHighF,DewpointAvgF,DewpointLowF,HumidityHigh,HumidityAvg,HumidityLow,PressureMaxIn,PressureMinIn,WindSpeedMaxMPH,WindSpeedAvgMPH,GustSpeedMaxMPH,PrecipitationSumIn
2013-1-1,45,39,33,40,36,32,95,89,79,29.93,29.30,8,1,8,0.08
2013-1-2,53,46,39,50,44,36,96,93,88,30.04,29.92,7,1,7,0.14
2013-1-3,54,51,49,50,48,44,94,88,81,30.41,30.04,8,3,8,0.02
2013-1-4,52,50,48,49,47,45,93,89,82,30.47,30.40,6,2,6,0.00
2013-1-5,51,49,47,48,46,42,93,89,84,30.45,30.27,12,1,12,0.02
2013-1-6,48,45,38,46,43,36,96,93,87,30.45,30.20,2,0,3,0.02
2013-1-7,49,48,47,48,47,45,97,95,94,30.20,30.00,2,0,2,0.42
2013-1-8,52,48,39,51,45,37,97,91,78,30.15,29.96,8,1,8,0.19
2013-1-9,47,40,34,42,38,33,96,91,82,30.16,30.05,5,1,5,0.00
2013-1-10,40,37,33,39,36,32,97,96,93,30.06,29.96,4,0,4,0.04
2013-1-11,41,39,37,40,38,36,97,96,93,30.02,29.97,2,0,2,0.01
2013-1-12,41,38,35,37,35,32,95,89,81,30.13,29.96,5,1,5,0.00
2013-1-13,36,35,33,35,33,32,96,94,89,30.14,29.98,1,0,1,0.13
2013-1-14,41,36,33,36,33,29,97,90,79,29.98,29.75,6,1,6,0.05
2013-1-15,42,34,29,34,31,27,93,88,74,29.93,29.82,2,0,3,0.00
2013-1-16,34,32,28,29,28,26,92,84,79,29.99,29.86,1,0,1,0.00
2013-1-17,36,34,32,30,28,26,85,78,69,30.00,29.83,5,1,5,0.00
2013-1-18,38,34,32,31,28,25,92,78,64,29.83,29.58,10,3,10,0.00
2013-1-19,39,34,32,35,31,28,94,88,81,29.75,29.60,9,2,9,0.01
2013-1-20,34,34,32,31,29,27,91,84,79,29.73,29.56,7,1,7,0.00
2013-1-21,35,34,33,32,32,30,94,92,84,29.56,29.50,12,3,12,0.35
2013-1-22,36,35,34,34,33,32,93,91,88,29.85,29.54,9,2,9,0.33
2013-1-23,37,35,34,33,32,30,91,88,83,29.97,29.85,4,1,4,0.03
2013-1-24,37,35,33,34,32,29,93,88,77,30.07,29.97,5,0,5,0.03
2013-1-25,36,34,33,33,32,29,95,91,78,29.97,29.40,7,0,7,0.40
2013-1-26,45,38,32,43,35,31,96,91,80,29.57,28.97,7,1,7,0.51
2013-1-27,47,41,36,45,38,34,94,89,83,29.22,28.78,13,3,13,0.30
2013-1-28,46,42,39,43,39,35,95,88,81,29.33,28.88,20,4,20,0.44
2013-1-29,51,46,44,50,41,37,97,84,70,29.33,28.94,13,4,13,0.46
2013-1-30,47,43,38,40,37,33,91,78,61,29.64,29.11,17,5,17,0.14
2013-1-31,43,41,38,40,38,36,95,89,81,29.65,29.20,9,2,9,0.71
2013-2-1,43,40,36,40,35,29,94,83,67,29.83,29.36,12,3,12,0.09
2013-2-2,45,37,31,32,29,26,90,74,50,30.19,29.83,6,1,6,0.00
2013-2-3,50,44,36,46,40,32,95,86,73,30.02,29.46,13,4,13,0.04
2013-2-4,50,38,32,47,34,29,93,84,66,29.54,29.31,20,6,20,0.20
2013-2-5,46,38,31,40,33,28,93,83,72,29.57,29.05,17,5,17,0.01
2013-2-6,42,39,35,33,29,26,77,67,58,30.14,29.56,21,6,21,0.00
2013-2-7,40,36,32,34,31,26,88,81,72,30.14,30.01,4,0,4,0.00
2013-2-8,45,39,33,38,34,31,95,84,66,30.17,30.07,4,1,4,0.05
2013-2-9,40,39,37,39,37,35,96,94,89,30.13,29.82,4,0,4,0.10
2013-2-10,39,37,36,36,35,33,92,90,87,29.82,29.43,5,2,5,0.08
2013-2-11,43,38,35,36,32,29,93,81,67,29.96,29.51,7,2,7,0.02
2013-2-12,40,36,35,32,30,29,84,79,71,30.10,29.97,5,1,5,0.00
2013-2-13,39,35,32,38,32,28,96,91,78,30.08,29.52,9,0,9,0.58
2013-2-14,49,44,39,43,40,37,96,88,77,29.81,29.53,7,2,7,0.19
2013-2-15,52,44,36,42,39,34,94,83,62,30.12,29.81,5,1,5,0.00
2013-2-16,46,42,34,44,39,32,95,92,88,30.13,30.10,2,0,2,0.00
2013-2-17,52,43,30,42,38,28,93,81,61,30.12,30.06,10,1,10,0.00
2013-2-18,53,36,26,39,31,25,96,84,54,30.14,30.09,2,0,2,0.00
2013-2-19,50,36,24,40,32,23,96,86,63,30.16,30.11,4,0,4,0.00
2013-2-20,43,40,32,39,36,28,91,85,78,30.33,30.15,6,2,6,0.00
2013-2-21,41,35,30,30,27,26,85,75,63,30.35,30.30,6,1,6,0.00
2013-2-22,38,35,33,28,26,24,79,69,63,30.35,30.29,4,0,4,0.00
2013-2-23,44,36,31,33,29,27,90,77,54,30.41,30.29,4,1,4,0.00
2013-2-24,45,37,32,35,32,29,91,82,68,30.51,30.41,5,1,5,0.00
2013-2-25,50,36,27,38,32,25,95,84,59,30.66,30.51,5,1,5,0.00
2013-2-26,52,37,27,41,32,26,95,84,50,30.71,30.65,5,0,5,0.01
2013-2-27,53,33,24,40,30,22,95,88,59,30.71,30.60,1,0,1,0.00
2013-2-28,46,36,26,40,33,24,96,91,79,30.60,30.52,1,0,1,0.00
2013-3-1,53,41,31,40,35,29,94,80,55,30.57,30.44,4,0,4,0.00
2013-3-2,56,42,28,44,36,26,96,81,60,30.44,30.26,5,0,5,0.00
2013-3-3,49,45,41,43,40,37,89,83,71,30.27,30.11,4,0,4,0.00
2013-3-4,48,41,31,37,35,29,93,79,61,30.11,29.76,4,0,4,0.00
2013-3-5,53,40,29,39,34,28,95,80,55,29.81,29.66,4,0,5,0.00
2013-3-6,42,40,38,38,37,34,91,87,85,29.74,29.67,8,2,8,0.00
2013-3-7,44,42,40,42,39,37,93,91,87,29.67,29.58,12,4,12,0.09
2013-3-8,41,39,38,38,37,36,94,91,85,29.75,29.60,12,4,12,0.16
2013-3-9,39,38,36,37,34,28,93,86,72,29.94,29.75,12,3,12,0.06
2013-3-10,40,34,26,34,28,22,90,80,71,30.16,29.94,12,3,12,0.04
2013-3-11,38,30,25,26,21,18,89,69,52,30.18,30.14,9,3,9,0.06
2013-3-12,46,36,27,33,27,20,77,68,54,30.16,29.92,7,2,7,0.00
2013-3-13,45,39,28,30,27,23,84,64,51,30.01,29.90,5,1,5,0.00
2013-3-14,43,35,26,39,32,23,94,88,77,30.01,29.59,6,1,6,0.08
2013-3-15,47,41,34,42,37,30,92,87,72,29.59,29.37,12,2,12,0.09
2013-3-16,40,36,30,36,33,28,95,92,83,29.40,29.20,9,1,9,0.17
2013-3-17,43,39,35,40,36,32,94,89,79,29.29,29.14,7,2,7,0.21
2013-3-18,40,37,33,38,34,30,94,90,86,29.57,29.29,8,3,8,0.08
2013-3-19,38,35,33,34,32,29,94,88,81,29.70,29.56,12,3,15,0.13
2013-3-20,39,35,32,35,32,30,95,89,76,30.08,29.70,5,1,5,0.09
2013-3-21,41,35,31,33,30,29,93,82,66,30.12,30.04,10,2,10,0.01
2013-3-22,37,36,35,31,30,29,85,80,75,30.05,29.99,13,4,16,0.00
2013-3-23,36,35,34,30,28,26,82,77,71,30.23,30.00,12,4,12,0.00
2013-3-24,38,35,34,29,27,24,80,72,60,30.33,30.22,12,3,12,0.00
2013-3-25,38,35,33,31,28,26,85,77,68,30.33,30.28,9,2,9,0.00
2013-3-26,40,35,32,33,29,25,88,78,66,30.28,30.19,7,2,7,0.01
2013-3-27,42,35,31,34,29,26,90,78,63,30.19,30.11,7,2,7,0.02
2013-3-28,45,37,33,32,28,25,85,71,52,30.13,30.06,12,2,12,0.00
2013-3-29,45,36,30,35,28,24,84,74,55,30.06,29.95,6,1,6,0.01
2013-3-30,45,34,23,33,27,21,93,75,50,30.04,29.98,8,1,8,0.00
2013-3-31,44,35,26,31,26,22,91,71,49,30.04,30.01,12,1,12,0.00
2013-4-1,46,37,30,29,26,24,80,66,49,30.12,30.03,7,2,9,0.00
2013-4-2,47,39,32,36,29,24,88,68,50,30.27,30.12,5,1,5,0.00
2013-4-3,50,39,28,34,30,24,93,71,44,30.33,30.27,6,1,6,0.00
2013-4-4,51,42,35,35,32,28,82,68,45,30.31,30.25,7,1,7,0.00
2013-4-5,52,40,32,34,30,26,84,68,42,30.29,30.24,8,1,8,0.00
2013-4-6,53,38,25,36,30,22,93,73,42,30.29,30.20,7,1,7,0.00
2013-4-7,42,38,35,38,34,30,91,86,78,30.20,30.02,6,1,6,0.00
2013-4-8,49,40,34,34,31,27,90,73,48,30.02,29.77,9,2,9,0.00
2013-4-9,50,40,33,35,29,23,85,66,39,29.77,29.69,10,2,10,0.00
2013-4-10,47,40,36,41,36,32,90,83,73,29.74,29.62,5,1,5,0.05
2013-4-11,47,41,37,38,36,34,89,80,68,29.62,29.44,5,2,6,0.00
2013-4-12,46,41,37,40,37,33,90,84,78,29.67,29.41,6,1,6,0.03
2013-4-13,56,47,39,46,40,36,92,78,52,29.75,29.45,10,2,10,0.05
2013-4-14,58,53,49,50,48,46,93,83,68,29.48,29.39,22,7,25,0.35
2013-4-15,61,52,48,50,46,42,90,78,62,29.73,29.46,18,4,18,0.12
2013-4-16,54,49,45,46,43,38,90,79,62,29.82,29.36,23,8,23,0.23
2013-4-17,54,46,40,50,43,36,95,87,75,29.84,29.11,18,4,18,0.77
2013-4-18,54,48,44,47,43,38,94,82,71,29.92,29.08,13,5,13,0.11
2013-4-19,58,47,35,41,37,32,90,68,45,30.43,29.92,9,2,9,0.00
2013-4-20,56,48,39,44,39,35,89,71,52,30.43,30.14,14,4,14,0.00
2013-4-21,54,47,42,44,41,38,92,82,61,30.14,29.85,12,3,15,0.16
2013-4-22,57,48,41,49,42,38,90,81,64,29.86,29.58,12,4,12,0.00
2013-4-23,56,50,45,45,41,39,87,73,59,30.04,29.70,13,6,15,0.02
2013-4-24,56,49,44,48,41,33,95,76,48,30.22,29.89,10,2,15,0.26
2013-4-25,54,45,40,43,38,35,88,77,61,30.21,30.01,8,2,8,0.02
2013-4-26,53,44,35,39,36,32,91,75,50,30.03,29.84,8,2,8,0.05
2013-4-27,55,46,38,36,32,26,84,61,36,30.14,29.96,7,2,10,0.01
2013-4-28,54,46,40,43,39,35,90,77,60,29.96,29.60,12,4,12,0.01
2013-4-29,55,46,40,40,37,34,87,71,46,30.10,29.60,18,5,18,0.01
2013-4-30,58,47,33,37,33,27,91,63,31,30.31,30.10,9,2,9,0.00
2013-5-1,57,49,41,44,38,31,89,68,40,30.27,30.09,12,3,12,0.01
2013-5-2,55,46,33,45,38,30,93,77,49,30.28,29.99,12,2,12,0.01
2013-5-3,52,49,42,49,46,37,92,88,83,29.99,29.65,10,3,12,0.38
2013-5-4,52,45,38,44,39,34,88,80,63,29.88,29.72,12,2,12,0.00
2013-5-5,60,54,48,54,48,43,88,82,68,30.03,29.87,9,3,9,0.00
2013-5-6,55,53,50,51,49,47,89,87,84,30.04,30.00,8,1,8,0.00
2013-5-7,74,65,53,55,49,42,80,57,46,30.08,29.87,6,2,6,0.00
2013-5-8,58,53,47,50,46,41,93,79,55,29.87,29.50,16,3,16,0.09
2013-5-9,54,48,44,46,42,39,90,80,62,29.54,29.37,12,2,12,0.12
2013-5-10,57,48,42,47,43,39,91,83,65,29.63,29.39,9,2,11,0.12
2013-5-11,52,47,43,46,43,40,93,85,74,29.74,29.48,10,2,10,0.10
2013-5-12,54,47,41,49,43,37,93,85,73,29.78,29.56,12,2,12,0.14
2013-5-13,52,43,36,43,38,34,93,83,69,29.61,29.41,12,3,16,0.20
2013-5-14,54,46,40,45,40,36,88,81,59,29.43,29.36,13,3,13,0.01
2013-5-15,59,46,35,44,39,33,94,76,52,29.43,29.30,8,1,8,0.06
2013-5-16,60,49,36,42,39,34,94,70,45,29.71,29.39,9,1,9,0.00
2013-5-17,64,51,37,44,39,34,93,66,38,29.88,29.71,6,1,6,0.00
2013-5-18,62,56,51,56,50,42,94,82,71,29.87,29.70,12,3,12,0.39
2013-5-19,61,53,49,56,51,48,96,93,84,29.99,29.81,4,0,4,0.15
2013-5-20,75,63,54,62,56,49,95,81,58,30.03,29.90,7,1,7,0.00
2013-5-21,65,56,46,51,46,42,91,70,46,30.09,30.02,4,1,5,0.00
2013-5-22,59,50,40,45,39,34,88,66,39,30.10,30.02,9,2,9,0.00
2013-5-23,52,45,38,38,34,31,77,65,48,30.03,29.91,13,3,13,0.00
2013-5-24,62,51,41,43,37,32,87,61,40,30.22,29.91,12,3,12,0.00
2013-5-25,67,52,34,47,40,32,94,68,36,30.23,30.11,8,1,8,0.00
2013-5-26,64,53,40,50,45,37,91,75,53,30.13,29.76,9,1,9,0.00
2013-5-27,55,51,48,47,45,43,88,82,74,29.75,29.45,18,5,18,0.06
2013-5-28,58,52,47,49,46,40,93,79,65,29.81,29.53,7,2,7,0.07
2013-5-29,65,56,44,52,46,39,85,70,56,29.93,29.80,12,2,12,0.00
2013-5-30,70,61,55,56,49,43,83,64,54,30.07,29.90,7,1,8,0.00
2013-5-31,67,55,44,56,48,40,95,77,57,30.18,30.07,5,1,6,0.00
2013-6-1,61,52,43,50,42,38,84,70,50,30.31,30.18,6,1,6,0.00
2013-6-2,70,54,39,47,42,35,90,67,38,30.44,30.31,6,1,6,0.00
2013-6-3,71,59,46,58,51,42,89,75,59,30.50,30.44,4,0,5,0.00
2013-6-4,74,63,55,56,49,45,78,61,43,30.50,30.33,6,2,6,0.00
2013-6-5,65,56,50,56,51,46,92,81,64,30.33,30.17,5,1,5,0.01
2013-6-6,73,60,51,55,50,43,90,71,45,30.28,30.20,5,1,5,0.00
2013-6-7,69,57,43,55,49,41,95,75,54,30.35,30.28,8,2,8,0.00
2013-6-8,78,58,42,55,48,40,93,70,36,30.34,30.12,12,1,12,0.00
2013-6-9,69,57,47,56,50,44,93,79,60,30.15,30.00,5,2,5,0.00
2013-6-10,66,56,51,54,49,46,90,79,62,30.04,29.91,6,2,6,0.00
2013-6-11,63,56,50,54,50,46,90,82,65,29.92,29.69,5,2,5,0.05
2013-6-12,66,56,47,58,52,44,93,85,70,29.69,29.59,8,1,10,0.13
2013-6-13,65,54,47,49,46,43,92,74,52,29.78,29.56,5,1,5,0.00
2013-6-14,66,55,44,55,48,42,92,78,56,29.81,29.59,13,2,13,0.17
2013-6-15,54,50,47,50,47,44,94,87,72,29.59,29.42,13,2,13,0.17
2013-6-16,73,56,46,55,49,44,95,77,45,30.00,29.58,6,1,6,0.00
2013-6-17,75,60,49,58,52,45,91,74,48,30.08,30.00,6,1,6,0.00
2013-6-18,72,62,55,57,54,49,91,75,55,30.04,29.92,8,1,8,0.00
2013-6-19,69,58,50,53,49,46,91,73,52,30.03,29.96,7,1,7,0.00
2013-6-20,79,62,48,58,51,44,92,70,40,30.03,29.78,6,1,6,0.00
2013-6-21,67,61,57,58,54,47,89,76,58,29.80,29.60,9,0,9,0.02
2013-6-22,64,56,51,55,51,48,94,83,62,29.60,29.30,8,1,8,0.26
2013-6-23,64,56,47,55,49,44,94,77,59,29.94,29.37,8,2,8,0.02
2013-6-24,62,55,48,47,45,42,85,69,56,30.26,29.94,4,0,4,0.01
2013-6-25,65,55,42,52,47,39,91,76,58,30.39,30.26,5,0,5,0.00
2013-6-26,70,58,47,51,48,45,93,70,44,30.42,30.39,5,0,5,0.00
2013-6-27,62,56,50,57,52,46,92,86,80,30.42,30.14,4,0,4,0.13
2013-6-28,67,58,50,59,53,44,95,83,65,30.14,29.89,6,1,6,0.14
2013-6-29,60,54,47,54,48,42,91,81,67,30.14,30.06,8,1,8,0.00
2013-6-30,63,58,52,57,52,47,89,82,68,30.10,29.84,14,2,14,0.00
2013-7-1,66,55,49,50,46,41,90,72,47,29.90,29.84,5,1,5,0.00
2013-7-2,57,54,49,54,50,44,94,86,73,29.88,29.45,12,1,12,0.24
2013-7-3,67,59,55,57,54,50,96,83,66,29.81,29.46,7,1,7,0.01
2013-7-4,65,59,54,60,53,47,95,82,63,30.13,29.71,8,2,8,0.43
2013-7-5,69,60,54,56,52,48,89,77,62,30.36,30.13,9,2,9,0.00
2013-7-6,74,62,47,59,54,45,95,76,52,30.42,30.30,13,1,13,0.00
2013-7-7,82,68,58,58,56,50,91,68,33,30.61,30.42,8,1,8,0.00
2013-7-8,88,68,54,64,58,51,93,74,39,30.64,30.47,4,0,4,0.00
2013-7-9,90,71,55,66,60,53,96,72,38,30.47,30.31,6,1,6,0.00
2013-7-10,72,63,57,61,56,52,89,80,66,30.42,30.34,4,1,4,0.00
2013-7-11,85,68,57,69,60,52,89,76,53,30.38,30.24,4,0,4,0.00
2013-7-12,86,70,55,66,60,53,95,73,44,30.26,30.18,5,0,5,0.00
2013-7-13,79,67,58,64,59,54,91,76,51,30.33,30.23,7,1,7,0.00
2013-7-14,74,63,54,57,53,47,91,71,49,30.32,30.17,4,1,4,0.00
2013-7-15,71,62,53,58,54,48,92,77,62,30.20,30.16,6,1,6,0.00
2013-7-16,76,66,58,63,58,54,89,77,52,30.24,30.17,9,1,9,0.00
2013-7-17,75,65,53,60,56,50,95,76,54,30.33,30.24,4,1,4,0.00
2013-7-18,85,71,57,68,61,54,95,72,48,30.36,30.32,5,1,5,0.00
2013-7-19,85,68,52,63,57,50,94,70,41,30.40,30.33,5,1,5,0.00
2013-7-20,82,66,53,64,57,51,94,74,48,30.37,30.27,5,2,5,0.00
2013-7-21,75,63,57,60,55,52,89,77,55,30.31,30.15,7,2,7,0.00
2013-7-22,72,63,59,62,58,56,93,84,68,30.15,30.00,8,2,8,0.00
2013-7-23,74,65,61,66,61,57,93,87,75,30.01,29.85,8,1,8,0.24
2013-7-24,80,67,58,66,61,56,96,82,55,29.90,29.85,8,1,8,0.17
2013-7-25,72,64,59,65,61,57,94,89,76,29.89,29.79,5,1,5,0.34
2013-7-26,72,64,58,64,59,54,94,85,70,29.84,29.81,5,0,5,0.35
2013-7-27,80,63,50,62,56,48,96,79,44,29.84,29.66,5,1,5,0.08
2013-7-28,65,61,58,60,58,56,94,88,77,29.66,29.52,4,0,9,0.50
2013-7-29,73,60,52,62,57,51,96,89,68,29.73,29.62,5,0,5,0.13
2013-7-30,71,58,49,60,54,48,96,85,55,29.79,29.73,9,1,9,0.23
2013-7-31,70,59,48,56,53,46,96,82,58,29.87,29.77,5,0,5,0.10
2013-8-1,70,64,58,64,60,56,95,90,81,29.78,29.62,12,1,14,0.50
2013-8-2,74,66,59,62,58,54,92,75,53,29.62,29.54,15,3,15,0.00
2013-8-3,67,60,56,57,53,50,90,79,58,29.84,29.57,13,3,13,0.02
2013-8-4,73,62,52,56,52,48,92,72,45,29.89,29.84,12,2,12,0.00
2013-8-5,75,59,50,57,52,47,92,77,46,29.88,29.73,4,0,5,0.00
2013-8-6,66,57,46,53,49,44,93,77,56,29.98,29.85,6,0,6,0.00
2013-8-7,71,60,53,58,54,50,92,80,58,30.06,29.96,4,0,4,0.27
2013-8-8,72,60,50,59,54,48,95,82,57,30.06,29.92,6,0,6,0.00
2013-8-9,70,62,54,58,54,48,94,79,55,30.10,29.87,5,1,5,0.05
2013-8-10,64,57,52,54,50,48,87,79,63,30.12,30.00,8,0,8,0.00
2013-8-11,69,59,51,55,50,48,93,75,51,29.93,29.85,9,1,12,0.03
2013-8-12,71,58,48,54,49,45,94,76,49,30.02,29.84,4,1,4,0.02
2013-8-13,68,57,46,51,48,43,94,74,51,30.14,30.02,2,0,2,0.00
2013-8-14,75,61,51,60,54,46,90,78,54,30.14,29.93,12,1,12,0.02
2013-8-15,69,63,60,63,60,58,95,90,78,29.92,29.73,12,2,12,0.26
2013-8-16,70,59,49,59,54,47,96,83,59,29.87,29.73,11,1,11,0.05
2013-8-17,69,59,53,64,55,50,95,87,75,29.84,29.38,9,2,9,0.46
2013-8-18,66,57,51,54,50,47,89,78,59,29.79,29.44,7,2,7,0.02
2013-8-19,66,58,50,54,50,47,91,77,57,30.16,29.79,7,2,7,0.00
2013-8-20,68,59,52,58,54,48,92,82,63,30.24,30.14,6,1,6,0.10
2013-8-21,71,62,58,63,59,56,95,88,73,30.14,30.03,12,0,12,0.28
2013-8-22,70,62,58,62,58,56,93,88,76,30.13,30.01,6,2,6,0.07
2013-8-23,70,62,57,63,58,54,93,86,74,30.01,29.87,5,1,5,0.00
2013-8-24,69,61,57,58,55,52,92,82,63,29.97,29.89,3,0,3,0.00
2013-8-25,73,62,49,61,56,47,95,82,64,30.17,29.97,4,0,4,0.00
2013-8-26,76,63,55,61,57,52,95,83,57,30.18,30.09,5,0,5,0.00
2013-8-27,77,61,51,62,55,49,94,83,58,30.21,30.08,4,0,4,0.00
2013-8-28,66,58,52,57,52,46,92,79,62,30.23,30.09,4,1,4,0.00
2013-8-29,65,59,53,57,54,48,94,84,73,30.09,30.00,6,1,6,0.00
2013-8-30,67,59,49,60,53,43,88,82,68,30.07,29.82,14,2,14,0.00
2013-8-31,65,54,46,49,45,35,89,71,38,30.27,30.06,6,1,6,0.00
2013-9-1,60,57,54,56,51,47,87,81,70,30.26,30.10,8,2,8,0.00
2013-9-2,70,63,59,61,58,56,90,83,73,30.23,30.08,6,2,6,0.00
2013-9-3,74,63,54,60,56,51,93,79,54,30.25,30.18,13,2,13,0.00
2013-9-4,73,61,53,56,53,48,94,76,49,30.18,29.91,8,1,9,0.00
2013-9-5,72,57,45,52,47,40,92,71,40,29.92,29.86,6,0,6,0.00
2013-9-6,58,50,43,48,45,40,93,83,64,29.95,29.89,5,1,5,0.43
2013-9-7,64,54,46,54,48,44,94,81,61,29.93,29.73,13,3,13,0.11
2013-9-8,64,54,47,50,47,43,94,78,56,29.99,29.93,4,1,5,0.11
2013-9-9,67,53,47,55,49,46,95,84,56,30.17,29.95,4,0,4,0.01
2013-9-10,70,57,47,51,47,43,88,72,48,30.24,30.17,16,1,16,0.00
2013-9-11,62,55,48,58,52,46,94,90,80,30.23,30.08,2,0,5,0.27
2013-9-12,65,58,53,60,55,51,96,90,74,30.08,29.87,6,0,6,0.12
2013-9-13,55,52,48,51,48,46,94,89,80,30.11,29.96,4,0,3,0.03
2013-9-14,69,51,39,50,44,38,97,79,46,30.07,29.92,4,0,4,0.01
2013-9-15,58,50,40,56,47,38,95,87,68,29.91,29.17,12,2,12,0.55
2013-9-16,58,47,38,47,42,36,94,82,63,29.32,29.26,7,1,7,0.01
2013-9-17,59,52,46,48,44,41,85,74,59,29.31,29.27,7,1,7,0.00
2013-9-18,60,53,42,48,44,40,96,72,59,29.73,29.29,5,1,5,0.00
2013-9-19,55,48,40,51,46,38,95,92,83,29.77,29.53,4,0,4,0.32
2013-9-20,63,52,41,52,48,40,96,84,66,30.03,29.77,9,1,9,0.00
2013-9-21,62,57,49,59,53,46,93,88,81,30.09,30.02,5,1,5,0.00
2013-9-22,70,62,52,60,57,50,93,84,68,30.28,30.09,12,2,12,0.00
2013-9-23,69,58,48,61,55,46,96,90,74,30.28,30.11,1,0,4,0.00
2013-9-24,62,59,56,58,56,54,93,90,84,30.12,29.97,4,1,4,0.00
2013-9-25,57,54,48,54,50,44,95,88,80,30.07,29.91,8,1,8,0.00
2013-9-26,58,52,44,50,47,41,93,83,69,30.13,30.07,4,1,4,0.00
2013-9-27,59,55,52,56,53,50,94,91,86,30.07,29.94,1,0,1,0.06
2013-9-28,71,58,46,60,53,45,97,85,62,29.94,29.85,4,1,4,0.00
2013-9-29,65,56,51,54,50,46,89,81,62,29.95,29.90,9,2,9,0.00
2013-9-30,60,55,52,52,50,48,89,82,72,29.93,29.84,8,2,8,0.00
2013-10-1,61,54,51,50,48,46,87,79,63,29.92,29.85,7,3,7,0.00
2013-10-2,58,55,53,54,52,48,94,89,82,29.87,29.76,6,2,6,0.42
2013-10-3,65,59,56,62,57,54,95,93,90,29.78,29.54,5,2,5,0.86
2013-10-4,67,58,54,60,56,51,97,91,73,29.82,29.54,2,0,2,0.16
2013-10-5,62,56,49,55,51,47,94,86,73,30.08,29.82,6,1,6,0.01
2013-10-6,63,59,57,58,56,54,93,89,84,30.09,30.04,9,1,9,0.00
2013-10-7,65,62,59,60,58,57,94,88,79,30.07,29.97,12,2,12,0.08
2013-10-8,61,56,52,58,52,46,94,87,77,30.15,29.96,5,1,5,0.24
2013-10-9,52,48,45,48,45,32,93,90,60,30.16,29.95,12,0,12,0.06
2013-10-10,56,48,43,40,36,32,74,65,52,30.45,30.15,14,3,14,0.00
2013-10-11,55,44,33,44,38,30,94,80,66,30.53,30.45,6,1,6,0.00
2013-10-12,59,51,42,48,44,39,91,79,62,30.50,30.28,8,2,8,0.00
2013-10-13,57,51,45,49,45,40,91,81,70,30.29,30.05,9,2,9,0.02
2013-10-14,54,51,49,51,48,45,92,88,83,30.05,29.94,6,1,6,0.13
2013-10-15,55,50,46,47,45,43,91,83,74,30.00,29.91,4,1,4,0.00
2013-10-16,53,48,44,48,46,42,94,91,84,29.99,29.60,7,1,7,0.61
2013-10-17,52,48,46,50,47,44,96,94,92,29.98,29.64,4,1,4,0.14
2013-10-18,53,50,48,51,48,46,95,91,88,30.01,29.69,5,2,5,0.26
2013-10-19,55,54,51,54,52,49,96,95,92,29.69,29.45,5,1,5,0.80
2013-10-20,61,54,50,57,52,49,96,93,83,29.48,29.41,4,1,4,0.28
2013-10-21,57,53,52,52,51,50,95,92,80,29.52,29.25,8,1,8,0.37
2013-10-22,61,56,53,57,54,52,97,93,83,29.27,29.09,8,0,8,0.66
2013-10-23,55,52,45,54,48,40,96,88,71,29.55,28.99,9,1,9,0.19
2013-10-24,53,47,44,46,43,41,93,86,78,29.90,29.55,7,1,7,0.00
2013-10-25,59,52,49,57,50,45,95,91,81,29.85,29.30,7,2,7,0.37
2013-10-26,55,52,48,53,48,45,95,87,75,29.43,29.14,10,1,10,0.06
2013-10-27,52,49,43,49,46,41,94,90,82,29.16,28.83,14,2,14,0.23
2013-10-28,55,48,42,48,45,40,95,89,72,29.33,28.87,4,1,4,0.15
2013-10-29,53,46,40,45,41,37,94,83,67,29.86,29.33,6,1,6,0.00
2013-10-30,53,45,36,50,42,33,96,90,79,29.92,29.59,7,1,7,0.31
2013-10-31,54,46,40,47,43,38,94,87,72,29.80,29.59,12,2,12,0.16
2013-11-1,52,45,35,45,41,33,94,84,72,29.60,29.55,14,2,14,0.02
2013-11-2,46,41,34,44,39,32,96,94,90,29.55,28.85,7,1,7,0.39
2013-11-3,50,42,33,40,37,30,95,82,62,29.28,28.94,9,2,9,0.05
2013-11-4,53,38,28,40,34,27,96,85,61,29.37,29.22,6,0,6,0.00
2013-11-5,42,33,26,37,32,24,96,93,79,29.34,29.17,4,0,7,0.13
2013-11-6,45,37,31,42,36,30,97,95,88,29.36,29.23,4,0,4,0.14
2013-11-7,47,41,32,42,38,31,96,91,80,29.46,29.35,14,2,14,0.15
2013-11-8,49,42,33,43,39,31,95,88,76,29.55,29.45,10,1,10,0.02
2013-11-9,44,36,31,40,34,30,97,93,85,29.65,29.49,4,0,2,0.06
2013-11-10,53,39,32,40,34,30,93,83,60,30.11,29.66,4,0,4,0.00
2013-11-11,53,46,41,50,43,36,96,90,76,30.02,29.81,7,1,7,0.16
2013-11-12,50,44,38,45,40,36,95,87,72,30.35,30.02,9,2,9,0.13
2013-11-13,48,44,38,45,42,36,96,90,80,30.36,29.78,12,2,12,0.17
2013-11-14,48,42,35,44,36,31,90,78,57,30.47,29.77,12,2,12,0.01
2013-11-15,52,46,37,48,43,34,94,89,84,30.47,30.32,10,2,10,0.00
2013-11-16,54,50,40,49,46,37,94,86,79,30.34,30.19,12,3,12,0.01
2013-11-17,51,39,31,43,37,29,96,92,70,30.36,29.93,4,0,4,0.02
2013-11-18,46,38,30,43,35,28,97,90,64,29.92,29.76,4,1,4,0.01
2013-11-19,41,36,30,39,30,26,95,81,63,30.01,29.57,6,1,5,0.09
2013-11-20,48,41,35,42,35,30,93,78,62,29.82,29.37,22,6,22,0.28
2013-11-21,44,37,28,33,29,25,88,73,63,30.16,29.80,12,2,16,0.00
2013-11-22,45,30,22,34,26,20,95,87,62,30.28,30.17,2,0,2,0.00
2013-11-23,50,35,26,40,32,24,95,89,70,30.43,30.28,4,0,4,0.00
2013-11-24,40,33,28,38,32,26,96,94,91,30.69,30.43,4,0,4,0.00
2013-11-25,40,30,23,35,28,21,96,93,79,30.73,30.69,1,0,1,0.00
2013-11-26,50,43,29,48,41,28,97,95,90,30.70,30.49,5,1,5,0.09
2013-11-27,55,50,44,49,46,43,95,88,75,30.52,30.45,6,1,6,0.00
2013-11-28,45,38,31,44,37,30,96,94,89,30.61,30.32,2,0,2,0.02
2013-11-29,48,43,38,45,38,33,96,83,69,30.32,30.08,9,3,10,0.16
2013-11-30,47,42,35,44,37,31,91,85,74,30.39,30.29,5,1,6,0.00
2013-12-1,53,42,36,47,40,34,96,92,76,30.58,30.35,2,0,2,0.00
2013-12-2,47,44,39,43,41,38,96,89,79,30.58,30.31,8,1,8,0.00
2013-12-3,49,47,37,46,44,33,94,90,77,30.31,30.10,10,2,10,0.17
2013-12-4,45,39,31,40,35,29,95,86,76,30.27,30.03,10,2,10,0.01
2013-12-5,49,39,30,45,34,25,92,83,61,30.11,29.38,26,6,26,0.44
2013-12-6,39,33,28,31,28,23,91,81,68,30.32,30.11,4,0,4,0.00
2013-12-7,49,38,33,46,36,31,96,93,87,30.22,29.91,7,0,7,0.04
2013-12-8,54,51,48,51,48,45,94,91,85,29.92,29.83,10,3,12,0.25
2013-12-9,54,51,49,51,48,44,94,88,80,30.18,29.92,8,2,8,0.09
2013-12-10,54,51,48,49,46,42,90,84,77,30.20,30.13,6,1,6,0.00
2013-12-11,54,48,35,50,44,33,95,88,82,30.22,30.02,10,2,10,0.00
2013-12-12,54,50,42,52,49,38,96,93,80,30.02,29.91,7,0,7,0.57
2013-12-13,55,50,43,52,47,38,95,89,80,29.92,29.68,12,2,12,0.13
2013-12-14,51,46,38,49,42,36,93,88,80,29.90,29.41,18,3,18,0.77
2013-12-15,50,43,39,46,40,36,95,88,78,29.85,29.50,16,2,16,0.23
2013-12-16,48,43,38,44,38,35,92,84,75,29.94,29.48,12,3,12,0.08
2013-12-17,48,41,35,41,37,33,95,86,73,30.07,29.73,12,2,12,0.08
2013-12-18,51,47,43,48,43,37,95,87,71,29.74,28.73,23,5,32,0.22
2013-12-19,45,39,35,38,35,33,94,87,73,29.47,28.77,20,4,28,0.32
2013-12-20,52,44,38,48,41,35,93,89,82,29.70,29.32,15,4,15,0.80
2013-12-21,48,44,39,44,40,36,93,85,79,29.46,29.23,22,4,22,0.20
2013-12-22,42,38,34,38,35,32,95,89,81,29.50,29.28,12,2,20,0.47
2013-12-23,49,41,36,46,38,34,96,90,84,29.49,28.27,14,2,14,0.23
2013-12-24,49,41,38,46,35,30,92,81,65,28.43,28.22,26,10,26,0.36
2013-12-25,44,42,40,40,38,35,91,86,76,29.05,28.43,20,4,20,0.23
2013-12-26,45,40,37,40,37,35,93,89,83,29.28,28.63,8,1,8,0.02
2013-12-27,46,44,39,43,41,36,94,89,84,28.70,28.15,21,6,21,0.43
2013-12-28,43,41,39,40,38,37,94,88,82,29.48,28.70,9,3,9,0.29
2013-12-29,46,40,35,43,37,34,96,91,81,29.78,29.47,12,1,12,0.29
2013-12-30,47,42,36,45,40,34,96,92,85,29.59,29.28,13,2,13,1.13
2013-12-31,45,41,36,41,38,34,95,89,84,29.59,29.23,10,1,15,0.09
2014-1-1,46,41,36,45,39,34,95,92,89,29.28,28.66,9,2,9,0.31
2014-1-2,46,43,40,44,40,38,94,90,84,29.11,28.66,13,2,13,0.17